INMARSAT 5-F3

导读 | 豆包AI

INMARSAT 5-F3是国际海事卫星组织(Inmarsat)所属的第五代海事通信卫星,于2015年8月28日发射升空。作为全球卫星宽带通信网络的重要组成部分,它主要为海事、航空及陆地上的用户提供高速宽带通信服务,覆盖全球主要海域与航线,增强了海上航行安全保障和应急通信能力,推动了全球移动宽带通信服务的发展。

基本信息
目录编号:
40882
目录名称:
INMARSAT 5-F3
国际标识:
2015-042A
轨道中心:
EARTH
卫星名称:
INMARSAT 5-F3
卫星全名:
--
卫星状态:
在轨 (已飞行3851 天)
发射日期:
2015-08-28 UTC
国别 :
(Inmarsat)
星等 :
--
轨道信息
数据来源 国际轨道数据 AOE轨道数据
星历时间 2026-03-13T20:49:36+0800
14小时前
查看轨道信息
2026-03-12T21:00:00+0800
1天前
查看轨道信息
半长轴 42165.709km 42164.953km
偏心率 0.0001239 0.0001492
轨道倾角 0.019° 0.017°
近地点辐角 273.808° 275.088°
升交点赤经 144.322° 144.174°
平近点角 124.999° 125.501°
近地点 35782.347km 35780.524km
远地点 35792.797km 35793.108km
周期 1436.147分钟 1436.108分钟
每日圈数 1.002683 1.00271
详细信息
使用方式:
暂无
2D轨道图
3D轨道图
轨道高度分析图
轨道倾角分析图
轨道综合分析图
查看轨道综合分析图